Dewpoint
22 15 11 7 12 18 17 15 13 9 12 14 14 11 11 11 12 14 16 17 19 13 11 10 10 10 9 9 10 10 2 -0 -0 -0 0 0 0 0 1 1 3 3 4 7 10 10 5 3 5 7 8 8 8 6 5 9 5 3 2 11 2 0 -1 5 3 -1 6 2 -1 1 1 1 -1 0 3 4 3 5 12 11 14 13 10 6 6 9
22 15 10 17 16 18 18 17 18 18 17 15 14 13 14 14 12 11 10 14 18 11 13 13 11 10 9 9 10 10 3 1 0 0 -0 0 0 0 1 1 2 2 4 6 8 9 6 3 5 7 8 14 6 6 3 5 6 5 3 1 -1 -1 -1 -1 -1 1 4 3 -0 -1 2 1 -1 -1 0 0 2 9 8 8 13 10 8 5 4 7
15 9 13 15 19 18 17 17 18 14 15 14 8 10 7 11 11 12 15 17 16 14 10 14 10 9 9 9 10 10 6 6 3 2 2 1 1 1 1 1 3 3 4 5 7 6 5 2 4 5 8 7 6 4 4 2 4 5 4 2 5 1 0 -0 2 6 5 0 1 1 2 -1 -1 1 2 2 8 7 7 4 10 9 8 5 3 5
12 14 17 16 18 15 17 19 18 18 16 8 8 7 9 12 6 9 14 17 15 10 10 11 11 10 10 8 5 10 8 6 4 2 2 3 1 1 2 1 2 3 4 5 5 5 2 -2 1 4 5 6 7 8 4 4 2 2 10 3 3 2 2 2 7 8 6 3 0 3 4 2 0 -0 3 2 1 2 1 2 5 5 7 5 4 5
9 13 20 20 19 14 12 14 12 10 9 14 10 8 7 7 6 6 8 12 14 14 17 14 10 8 6 3 2 6 9 9 8 6 5 4 4 2 3 2 4 3 5 5 6 6 3 -2 -2 2 5 5 5 4 3 2 1 1 3 5 4 1 1 2 8 6 6 4 3 3 2 3 4 3 0 -2 -2 -2 -0 3 0 1 5 4 5 6
12 16 20 16 15 13 11 10 11 9 12 10 12 10 10 7 7 8 9 10 6 2 9 8 5 5 4 5 3 3 5 5 7 8 8 8 6 5 4 3 3 5 5 5 5 6 5 -1 -4 -0 3 3 2 1 2 1 0 1 2 3 4 3 2 2 2 4 4 3 3 -1 -3 -3 -2 -2 -2 -3 -3 -3 -4 -4 -1 2 2 1 4 7
14 18 18 16 14 16 12 9 9 10 7 8 13 12 9 9 10 10 8 7 3 -0 2 9 2 6 5 4 5 5 5 4 4 7 7 8 9 8 7 6 5 5 5 6 7 6 5 2 -3 -3 -0 2 2 0 0 0 0 1 1 2 2 2 2 2 4 3 6 1 -1 -4 -6 -4 -3 -4 -3 -3 -4 -3 -3 0 -1 0 -1 1 3 3
18 15 12 14 11 14 10 9 8 14 10 12 13 12 12 11 9 7 8 7 6 11 12 4 4 -0 5 5 6 5 4 4 5 6 7 7 8 8 8 8 8 7 6 7 7 6 5 3 -1 -3 -3 -1 1 2 0 -1 -0 -0 1 1 1 2 8 3 3 3 4 1 -1 -2 -4 -2 -3 -4 -3 -3 -5 -4 -1 -0 -1 -3 -4 -1 -0 -0
14 11 11 9 11 9 8 7 8 11 8 11 15 14 11 10 9 10 10 10 10 5 5 3 3 1 -1 3 6 5 3 4 5 5 7 7 8 9 9 10 9 10 9 8 8 7 6 3 1 -0 -3 -3 -1 0 0 -1 -1 -1 -1 4 2 1 3 6 5 5 1 5 1 -1 -1 -3 -1 -1 -1 -1 1 0 -2 -5 -4 -5 -4 -2 -2 -1
17 13 16 11 9 10 10 9 12 11 8 13 16 15 14 16 16 13 11 9 4 2 -1 2 2 -0 6 6 6 5 2 4 7 9 9 10 10 9 10 10 10 10 11 10 9 8 7 5 3 -0 -2 -2 -1 0 3 0 -1 -2 -2 2 3 1 1 2 3 6 4 1 4 1 -1 -2 -3 -3 -2 -3 -5 -7 -7 -6 -6 -6 -4 -3 -3 -2
17 27 25 13 10 11 11 13 14 12 12 17 12 7 13 8 10 11 8 4 1 -4 2 5 5 3 3 6 5 4 6 8 10 8 9 10 10 11 11 11 11 11 11 11 10 9 8 6 3 1 -2 -2 0 1 0 1 -1 -2 -2 -1 2 1 1 3 1 1 2 2 -1 -2 -2 -3 -5 -5 -5 -6 -7 -8 -7 -7 -7 -7 -5 -4 -3 -1
19 19 21 21 26 16 12 11 20 18 16 10 6 6 13 6 7 4 6 3 -2 -1 3 5 1 2 -2 5 6 8 12 10 9 10 11 9 10 11 11 11 12 11 11 11 11 9 8 6 2 -1 -2 -2 -0 2 0 0 0 0 -2 -2 -1 -0 1 1 2 1 -0 -0 -1 -3 -4 -5 -5 -6 -6 -7 -8 -8 -7 -7 -7 -6 -5 -4 -3 -2
12 15 18 17 28 12 12 11 15 18 15 10 8 8 5 3 2 -3 2 2 -5 -0 1 2 4 4 2 4 7 8 8 13 13 11 11 11 10 10 10 11 12 11 11 11 11 10 9 6 4 1 -1 -2 -0 -0 -0 -1 -0 -0 -2 -2 -1 -1 -1 -0 -0 1 0 -1 -1 -2 -4 -5 -4 -5 -7 -8 -8 -8 -7 -7 -7 -6 -5 -4 -4 -5
12 17 17 16 15 20 12 9 9 10 11 7 5 4 2 2 -5 -5 -2 -4 -2 6 6 2 2 3 5 7 8 7 9 11 13 14 15 14 12 11 11 11 11 12 12 11 10 9 8 6 5 3 0 -2 -3 -2 -2 -1 2 -1 -1 -2 -2 -2 -1 -0 -1 -1 -0 -0 -0 -2 -3 -4 -4 -4 -5 -6 -6 -6 -6 -6 -6 -5 -4 -4 -5 -6
4 9 10 14 12 14 11 10 9 10 8 7 4 4 1 1 -1 -4 -5 -5 -4 5 8 6 -3 1 0 14 11 11 12 12 11 11 11 11 11 11 11 12 12 11 10 10 10 9 8 7 6 3 1 -1 -2 -3 -3 -2 0 -0 -1 -1 -0 -2 -2 -2 -1 -1 -0 -1 -2 -3 -4 -4 -5 -7 -7 -6 -5 -6 -6 -5 -5 -4 -4 -5 -6 -6
8 9 10 14 13 13 9 13 14 7 6 8 5 10 5 -0 6 -0 -7 -5 -5 -0 3 -3 3 5 8 9 10 10 8 9 10 10 11 10 10 10 10 9 9 9 9 8 8 9 9 8 7 4 1 -1 -3 -4 -3 -2 -1 -0 -0 -1 -2 -1 -1 -2 1 -2 -2 -2 -3 -4 -5 -5 -4 -1 -4 -4 -4 -3 -4 -5 -4 -5 -6 -6 -6 -5
10 7 12 13 13 10 10 16 11 10 4 7 7 0 4 10 5 -3 2 0 -1 -6 1 -7 4 7 8 8 11 13 11 11 11 11 10 10 9 8 7 7 7 7 7 7 6 5 6 6 6 4 2 -1 -3 -3 -4 -3 -2 -2 -1 0 -2 -2 -2 -3 -1 -2 -3 -4 -4 -4 -5 -6 -6 -6 -5 -4 -4 -4 -4 -5 -7 -7 -8 -8 -6 -6
4 9 15 11 11 13 14 15 13 14 11 9 1 5 7 6 7 4 -2 -9 -12 -5 2 1 2 6 4 5 13 13 11 12 12 13 14 13 12 10 9 9 8 8 8 8 7 6 5 4 4 2 -0 -2 -3 -4 -3 -3 -2 -2 -2 -1 -1 -1 -3 -4 -4 -2 -3 -4 -4 -5 -5 -5 -6 -7 -7 -6 -4 -5 -6 -8 -8 -7 -7 -6 -6 -5
16 8 12 14 14 14 15 14 12 11 16 8 7 9 7 -1 2 5 -4 -3 -2 -5 -3 3 1 3 4 9 10 9 11 12 13 13 13 13 12 11 10 10 10 9 8 7 6 6 5 3 2 0 -1 -2 -4 -2 -3 -3 -2 -2 -3 -2 -2 -3 -3 -4 -5 -4 -3 -5 -5 -6 -5 -7 -7 -8 -8 -7 -7 -6 -6 -6 -8 -7 -7 -8 -7 -4
12 4 11 14 12 14 12 12 8 8 8 10 11 8 9 8 -2 -1 -1 -1 1 -2 -2 2 -4 5 6 9 10 9 11 12 12 13 12 12 12 11 10 10 10 9 9 9 8 7 5 4 2 0 -2 -3 -4 -4 -4 -4 -3 -3 -3 -1 -2 -3 -5 -5 -5 -3 -4 -5 -6 -6 -6 -7 -7 -7 -8 -8 -8 -9 -7 -7 -8 -8 -9 -8 -5 -6
11 11 4 12 14 13 10 11 9 8 5 5 5 2 4 -2 6 5 -2 1 3 -11 -9 -7 1 5 9 12 10 13 14 13 13 12 12 11 11 10 10 9 10 10 10 9 8 7 6 5 3 0 -2 -3 -4 -3 -2 -4 -4 -3 -2 -3 -2 -4 -6 -6 -5 -6 -5 -5 -6 -6 -7 -7 -7 -8 -7 -8 -9 -9 -8 -8 -6 -8 -9 -7 -7 -6
7 11 7 11 10 11 11 12 12 9 9 8 10 7 10 3 1 1 5 -4 -5 -1 -2 -10 3 5 8 12 12 11 12 12 12 12 11 10 9 9 9 10 11 10 10 9 9 7 6 4 1 -1 -4 -4 -5 -6 -5 -3 -3 -2 -2 -3 -5 -4 -5 -6 -6 -6 -7 -6 -7 -7 -7 -7 -8 -8 -9 -9 -9 -7 -8 -9 -9 -8 -6 -7 -7 -7
12 11 10 9 10 10 12 10 14 11 10 11 10 9 9 3 4 -3 -1 -0 -2 -2 -7 -7 -5 5 11 9 11 11 11 11 11 10 8 8 9 10 12 12 12 11 11 10 10 8 7 4 1 -3 -4 -6 -7 -6 -5 -4 -3 -2 -3 -4 -3 -4 -4 -5 -6 -6 -7 -8 -8 -8 -8 -8 -8 -8 -8 -9 -9 -8 -8 -9 -9 -8 -7 -7 -7 -7
24 6 3 9 11 10 9 10 12 10 9 7 7 8 8 3 8 9 6 -1 1 -6 -4 -7 -2 5 8 10 10 9 10 9 9 9 9 11 12 13 13 13 13 13 13 13 13 12 11 8 3 -2 -4 -7 -7 -7 -6 -5 -4 -3 -3 -2 -4 -5 -5 -5 -6 -6 -7 -8 -8 -8 -8 -9 -8 -9 -9 -10 -10 -10 -9 -9 -9 -6 -7 -7 -7 -6
6 12 9 3 5 6 8 9 10 11 8 7 4 7 6 2 0 -3 -3 -6 1 2 5 2 3 6 9 10 10 9 9 11 12 12 13 13 13 13 13 13 14 14 14 15 15 15 15 13 9 5 1 -3 -5 -7 -6 -4 -4 -3 -2 -3 -4 -6 -6 -7 -7 -8 -8 -8 -8 -9 -9 -9 -9 -9 -10 -10 -10 -10 -10 -9 -8 -8 -8 -8 -8 -6
8 10 5 2 1 3 4 5 7 6 4 8 7 7 6 4 3 3 1 -3 0 3 3 -3 3 7 9 10 9 11 12 12 13 13 13 13 13 13 13 14 14 15 16 16 16 16 16 16 13 8 5 1 -2 -4 -5 -4 -3 -4 -4 -4 -5 -6 -7 -8 -8 -8 -8 -9 -9 -9 -9 -9 -10 -10 -11 -11 -10 -10 -9 -9 -8 -8 -8 -8 -7 -6
5 10 10 9 9 9 11 11 14 17 10 6 6 5 5 3 3 1 3 -1 5 1 5 5 6 8 9 9 10 12 13 13 13 13 12 13 13 14 14 15 16 17 16 16 17 17 17 17 17 16 12 7 2 -1 -3 -3 -3 -4 -5 -4 -5 -6 -7 -8 -8 -8 -8 -8 -8 -9 -9 -10 -10 -10 -11 -10 -10 -10 -8 -9 -9 -9 -8 -6 -5 -5
2 5 9 10 11 11 11 11 12 13 10 10 8 9 6 5 5 5 7 6 6 2 6 7 8 8 9 10 12 13 13 13 13 12 13 13 14 14 15 17 21 17 17 18 18 18 18 18 18 18 16 14 9 3 -1 -3 -3 -2 -4 -5 -6 -7 -7 -8 -8 -8 -8 -8 -8 -9 -9 -10 -10 -10 -10 -10 -10 -9 -8 -7 -8 -7 -6 -4 -5 -4
5 4 4 6 6 9 11 10 11 11 11 11 11 10 8 7 5 5 7 10 7 6 8 10 10 9 11 12 12 13 13 13 13 13 13 14 15 16 17 17 17 17 17 18 18 19 19 18 18 19 18 17 14 8 3 -0 -3 -4 -4 -4 -6 -7 -7 -7 -7 -7 -8 -8 -8 -8 -9 -8 -9 -10 -10 -9 -9 -9 -8 -8 -7 -5 -3 -3 -1 -2
7 7 2 5 10 12 12 12 12 12 12 11 10 12 12 8 7 8 9 9 8 9 10 10 10 10 11 12 12 13 13 13 13 14 14 15 16 17 17 17 17 17 18 18 19 19 19 19 19 19 18 18 17 15 10 4 -1 -3 -4 -5 -6 -7 -7 -6 -7 -7 -7 -7 -7 -7 -8 -7 -8 -9 -9 -9 -9 -8 -8 -6 -5 -3 -2 -2 -2 -2
8 8 11 5 3 10 9 10 9 11 9 9 10 10 11 12 10 9 8 9 8 9 10 10 10 11 12 13 13 13 14 14 14 15 16 16 17 17 18 18 18 18 19 20 20 20 20 20 20 19 19 19 18 17 15 10 4 -1 -3 -4 -5 -5 -6 -7 -7 -6 -7 -6 -6 -6 -7 -8 -8 -8 -8 -8 -8 -5 -6 -6 -3 -1 -2 -3 -2 -3
6 6 0 0 4 9 9 9 9 9 10 9 9 9 9 9 7 9 7 10 7 9 10 7 8 11 13 13 13 13 13 14 15 16 16 17 17 18 18 18 18 19 20 21 21 21 21 21 20 19 19 19 18 17 15 12 7 0 -2 -3 -4 -5 -6 -6 -6 -6 -5 -5 -5 -6 -6 -7 -8 -8 -7 -6 -6 -4 -4 -3 -2 -2 -2 -3 -3 -3
4 2 3 0 4 8 9 9 9 9 9 3 2 7 8 10 10 10 11 11 11 10 7 10 12 13 12 13 12 13 14 16 17 17 17 17 18 19 19 18 19 21 21 21 21 22 21 20 20 20 20 19 18 16 14 11 6 2 1 -2 -4 -4 -5 -6 -5 -4 -4 -4 -5 -6 -6 -7 -7 -5 -3 -4 -4 -4 -3 -2 -3 -3 -3 -4 -4 -4
2 3 1 4 2 5 7 8 9 8 3 1 7 9 10 9 9 9 10 10 11 11 11 13 12 12 12 13 13 14 15 17 17 17 18 18 19 19 18 19 21 22 22 22 22 22 22 21 21 21 20 19 17 15 13 9 5 3 1 -2 -3 -3 -3 -4 -3 -2 -3 -4 -4 -5 -5 -5 -4 -3 -2 -4 -4 -3 -3 -4 -4 -4 -4 -4 -4 -5
5 3 3 -1 3 6 7 8 9 -0 4 7 8 9 11 11 10 10 10 10 10 11 12 12 12 11 12 14 15 16 17 18 18 18 19 20 20 18 19 21 22 22 22 22 22 22 22 23 22 22 20 19 17 14 11 8 4 1 -1 -2 -1 -1 -1 -1 -1 -0 -2 -3 -3 -4 -3 -4 -2 -3 -4 -4 -4 -4 -4 -5 -5 -5 -5 -5 -5 -5
5 2 0 6 -2 2 2 -3 1 4 8 10 9 9 9 10 10 9 11 11 11 11 10 9 11 14 15 16 17 18 18 18 19 20 20 20 19 20 22 22 22 22 22 23 22 22 23 23 23 21 20 19 16 13 10 7 3 -0 0 -0 0 1 1 1 -0 -1 -2 -1 -2 -2 -2 -2 -2 -2 -2 -4 -4 -4 -5 -5 -6 -6 -5 -5 -5 -5
11 -0 3 6 3 2 -3 -1 8 7 8 8 9 10 9 10 9 8 9 10 10 10 9 11 14 16 16 17 18 19 19 19 20 20 20 20 20 22 22 22 22 23 23 23 23 23 24 24 23 22 20 18 16 13 10 7 2 0 -0 0 1 3 3 1 1 -0 -0 -0 -1 -0 -2 -2 -2 -2 -3 -4 -5 -5 -5 -5 -6 -5 -5 -6 -6 -6
13 9 10 6 4 1 3 4 3 -2 -2 7 9 10 12 9 10 8 6 9 10 10 10 15 16 16 17 18 19 19 20 20 18 19 20 21 22 22 23 23 23 24 23 23 24 24 25 24 23 22 21 18 16 14 12 7 2 1 1 1 3 4 3 1 1 1 1 1 1 1 -1 -1 -2 -3 -4 -3 -4 -5 -5 -6 -6 -6 -5 -6 -7 -7
11 10 8 5 5 2 2 2 -3 1 5 9 11 11 12 9 7 8 3 7 12 12 17 16 16 17 18 19 19 20 19 18 19 20 21 22 23 23 23 23 24 24 24 24 24 24 24 24 23 22 22 20 18 17 14 7 3 3 3 3 3 2 3 3 3 2 1 1 1 1 -1 -1 -2 -3 -4 -5 -5 -6 -6 -6 -6 -6 -6 -6 -7 -7
9 1 3 6 5 2 -6 1 3 -3 3 9 11 12 12 7 8 9 10 9 14 18 18 17 17 18 19 19 20 20 20 18 19 21 22 23 23 23 23 24 24 24 24 25 25 24 24 24 23 23 22 21 20 18 14 6 4 5 4 5 5 2 2 3 3 3 2 2 1 1 0 -0 -2 -3 -4 -4 -5 -5 -6 -6 -6 -7 -7 -7 -7 -8
11 8 3 9 -4 5 8 1 -3 6 11 13 13 12 8 7 8 8 10 15 18 18 18 17 18 19 20 20 20 20 21 21 22 22 23 24 24 24 24 25 25 25 25 25 25 26 24 23 23 22 22 22 21 19 14 8 5 5 5 5 4 2 2 3 3 2 1 2 1 0 -1 -1 -2 -3 -4 -4 -5 -5 -6 -6 -7 -7 -8 -9 -8 -8
1 -2 4 -4 2 3 2 3 7 6 13 13 14 8 7 17 14 13 18 19 18 18 18 18 19 20 21 20 21 21 22 22 23 24 24 24 24 24 25 25 25 25 26 26 25 25 24 23 22 22 22 22 21 19 13 8 6 6 6 5 4 4 5 4 4 3 2 1 -0 -1 -1 -2 -2 -4 -5 -5 -5 -6 -7 -7 -7 -8 -9 -9 -8 -9
5 4 1 1 3 3 0 -5 2 3 6 12 14 16 11 16 17 19 18 18 19 18 19 20 20 21 21 21 22 22 23 23 24 24 24 24 25 25 25 25 25 25 25 25 24 24 24 22 22 22 22 22 21 20 14 8 7 7 7 5 5 6 6 5 4 3 1 0 -0 -1 -2 -2 -4 -5 -5 -6 -6 -7 -9 -8 -9 -9 -9 -10 -10 -10
6 4 1 1 5 4 -1 3 5 13 14 15 15 15 17 17 19 19 19 18 19 20 20 21 21 22 22 22 22 23 24 24 24 25 25 25 25 26 26 26 26 26 25 25 24 24 23 23 22 22 22 22 22 21 16 10 9 9 7 7 8 7 5 4 3 1 0 -0 -1 -2 -2 -3 -5 -5 -5 -7 -7 -8 -9 -10 -9 -9 -10 -11 -11 -10
12 7 9 9 8 7 10 11 15 16 16 16 16 18 19 20 21 21 19 19 20 21 22 22 22 23 23 23 23 24 24 25 25 26 26 26 26 26 26 26 26 26 25 24 24 24 23 22 22 22 22 22 22 22 19 12 10 9 9 10 10 7 5 3 2 1 -0 -1 -2 -3 -4 -4 -5 -6 -6 -7 -8 -9 -10 -11 -10 -11 -11 -10 -11 -10
15 14 14 11 13 14 14 15 17 17 19 20 20 21 21 21 21 21 21 21 22 22 23 23 23 23 23 24 24 25 25 25 26 26 26 26 26 27 27 26 26 26 25 25 24 23 22 22 22 22 22 22 22 22 20 15 11 9 11 12 11 8 6 3 1 -0 -2 -2 -3 -4 -5 -6 -7 -7 -8 -8 -9 -9 -10 -11 -11 -11 -11 -10 -10 -10
12 13 13 12 13 17 14 17 18 19 19 20 21 22 22 22 22 22 22 23 23 23 23 24 23 24 24 25 25 25 26 26 26 26 26 27 26 26 26 26 26 25 25 25 24 23 22 21 21 21 22 22 22 22 21 19 15 12 12 11 11 8 5 3 1 -1 -2 -3 -4 -5 -6 -6 -7 -8 -9 -9 -10 -10 -10 -10 -10 -10 -10 -9 -10 -10
18 15 17 16 18 16 16 18 19 20 21 22 22 22 22 23 23 23 24 24 24 24 24 25 25 25 26 25 26 26 26 26 26 26 26 27 27 27 27 26 25 25 26 25 23 22 21 21 21 21 21 22 23 22 21 20 19 17 14 12 11 7 4 2 0 -1 -2 -3 -4 -6 -7 -7 -8 -8 -9 -10 -10 -11 -11 -11 -10 -11 -11 -10 -10 -11
16 17 16 18 17 18 19 19 20 21 22 22 23 23 23 24 24 24 24 24 25 25 25 25 26 26 26 26 26 26 26 26 26 27 27 26 26 27 26 26 26 26 26 23 21 21 20 20 21 22 22 23 23 22 21 19 18 17 15 14 11 6 4 2 0 -1 -2 -4 -5 -7 -7 -8 -8 -8 -9 -10 -10 -10 -11 -11 -11 -10 -10 -8 -8 -8
19 18 19 19 18 18 18 19 21 20 20 22 23 24 24 25 24 25 25 25 25 25 25 25 26 26 27 27 27 26 26 26 26 26 26 27 27 26 26 26 27 25 22 21 20 20 21 22 22 22 23 23 22 21 20 18 17 17 16 14 10 6 4 2 0 -1 -3 -4 -6 -7 -8 -8 -9 -10 -9 -10 -10 -10 -10 -6 0 -4 -9 -9 1 5
18 19 19 19 19 19 21 21 22 23 23 23 24 25 25 25 25 25 25 25 26 26 26 26 26 26 26 26 27 26 26 26 26 26 26 27 27 26 27 25 23 21 20 19 19 21 21 20 21 23 22 21 21 20 18 16 16 16 15 14 10 6 4 3 0 -2 -3 -5 -6 -7 -8 -9 -10 -11 -10 -10 -10 -11 -11 -11 -7 6 9 7 3 6